Regional Weather Roundup
Issued by NWS Sterling, VA

Home | Current Version | Previous Version | Graphics & Text | Print | Product List | Glossary On
Versions: 1 2 3 4 5 6 7 8 9 10 11 12 13 14 15 16 17 18 19 20 21 22 23 24 25 26 27 28 29 30 31 32 33 34 35 36 37 38 39 40 41 42 43 44 45 46 47 48 49 50
618
ASUS41 KLWX 191110
RWRLWX

REGIONAL WEATHER ROUNDUP
NATIONAL WEATHER SERVICE BALTIMORE MD/WASHINGTON DC
600 AM EST THU JAN 19 2017

Note: "FAIR" indicates few or no clouds below 12,000 feet
with no significant weather and/or obstructions to visibility.
 TC=TEMPERATURE CELSIUS

 * =Non NWS site. Station does not report precipitation (e.g. rain,
    snow, etc.), thunder, or fog.

DCZ001-MDZ009-015-VAZ040>042-051-053>054-191200-
WASHINGTON METRO

CITY           SKY/WX    TMP DP  RH WIND       PRES   REMARKS
WASHINGTON NAT MOCLDY    43  36  76 N8        30.08S
DULLES         CLOUDY    44  34  67 NW6       30.08R
ANDREWS AFB    PTCLDY    40  34  79 NW7       30.06S
FT BELVOIR     PTCLDY    41  34  76 NW6       30.08R
QUANTICO       CLOUDY    37  35  92 NW6       30.10R
COLLEGE PARK*  CLOUDY    43  34  70 NW5       30.07S
LEESBURG*      CLOUDY    45  39  81 CALM      30.08S
GAITHERSBURG*  CLOUDY    43  32  65 CALM      30.10S

$$

MDZ006>007-011-014-191200-
BALTIMORE METRO

CITY           SKY/WX    TMP DP  RH WIND       PRES   REMARKS
BWI AIRPORT    CLOUDY    44  36  73 NW6       30.07S
MD SCIENCE CTR   N/A     47  34  60 MISG      30.07S
MARTIN STATE   CLOUDY    45  39  81 NW5       30.08
ANNAPOLIS      CLOUDY    45  36  70 NW3       30.06S
FORT MEADE*    CLOUDY    41  34  75 CALM      30.09S

$$

MDZ012-015-019>023-191200-
MARYLAND EASTERN SHORE

CITY           SKY/WX    TMP DP  RH WIND       PRES   REMARKS
OCEAN CITY     CLOUDY    43  41  93 CALM      30.06S
SALISBURY      CLOUDY    45  38  76 NW7       30.06S
BAY BRIDGE AP* CLOUDY    43  36  75 N3        30.07S
CAMBRIDGE*     CLOUDY    43  36  75 CALM      30.07S
EASTON*        CLOUDY    45  36  70 N3        30.11R

$$

MDZ017>025-191200-
SOUTHERN MARYLAND

CITY           SKY/WX    TMP DP  RH WIND       PRES   REMARKS
PATUXENT RIVER CLOUDY    40  36  86 W6        30.08R
ST INIGOES     PTCLDY    43  35  73 CALM      30.07R
LEONARDTOWN*   CLOUDY    37  34  87 CALM      30.09S

$$

MDZ003>005-191200-
NORTH CENTRAL MARYLAND

CITY           SKY/WX    TMP DP  RH WIND       PRES   REMARKS
FREDERICK*     CLOUDY    43  36  75 CALM      30.10S
HAGERSTOWN APT CLOUDY    43  34  70 W3        30.05S
WESTMINSTER*   NOT AVBL

$$

MDZ501>502-191200-
WESTERN MARYLAND

CITY           SKY/WX    TMP DP  RH WIND       PRES   REMARKS
OAKLAND*       FOG       32  32 100 W6        30.03R VSB<1/4
CUMBERLAND*    CLOUDY    43  36  75 W6        30.12S

$$

VAZ025>031-191200-
SHENANDOAH VALLEY

CITY           SKY/WX    TMP DP  RH WIND       PRES   REMARKS
WINCHESTER*    CLOUDY    41  34  75 NW6       30.07R
FRONT ROYAL*   CLOUDY    36  34  93 S3        30.06S
LURAY*         CLOUDY    32  32 100 S5        30.08R
NEW MARKET*    CLOUDY    28  27  96 CALM      30.07S
STAUNTON*      CLOUDY    28  27  96 CALM      30.09R
WAYNESBORO*    CLOUDY    37  34  88 NW3       30.07R

$$

WVZ021-048>050-054>055-191200-
EASTERN WEST VIRGINIA PANHANDLE

CITY           SKY/WX    TMP DP  RH WIND       PRES   REMARKS
MARTINSBURG    CLOUDY    43  35  73 CALM      30.06S
PETERSBURG*    CLOUDY    30  29  96 CALM      30.10R

$$

VAZ036>039-050-191200-
CENTRAL FOOTHILLS

CITY           SKY/WX    TMP DP  RH WIND       PRES   REMARKS
CHARLOTTESVILL CLOUDY    35  32  88 S3        30.07R
CULPEPER*      CLOUDY    30  30  99 CALM      30.09S
ORANGE*          N/A     32  32 100 CALM      30.10R
GORDONSVILLE*  CLOUDY    29  29 100 CALM      30.08R
WARRENTON*     CLOUDY    31  28  90 CALM      30.08R

$$

VAZ055>057-191200-
NORTH AND CENTRAL PIEDMONT

CITY           SKY/WX    TMP DP  RH WIND       PRES   REMARKS
FREDERICKSBRG* CLOUDY    35  35 100 CALM      30.08S
STAFFORD*      CLOUDY    31  31 100 CALM      30.12S

$$

NCZ024-NYZ072-PAZ021-071-VAZ022-071-191200-
OTHER REGIONAL OBSERVATIONS

CITY           SKY/WX    TMP DP  RH WIND       PRES   REMARKS
NEW YORK CITY  PTCLDY    41  36  82 W5        30.04S
PHILADELPHIA   CLOUDY    45  36  70 NW5       30.06S
PITTSBURGH     CLOUDY    38  35  89 SW7       30.08R
ROANOKE        CLOUDY    40  35  83 N6        30.10R
RICHMOND       CLOUDY    39  35  86 N5        30.08R
RALEIGH        PTCLDY    36  33  89 CALM      30.07S

$$

ANZ530>537-191200-
MARINE OBSERVATIONS

STATION/POSITION TIME  TEMP    WIND        PRES
                       AIR SEA DIR/SP/G
                 (UTC) (F)     (DEG/KT/KT) (MB)
THOMAS PT LIGHT  1100   45 39  350/  5/  6   N/A
BALT KEY BRIDGE  1048   45     310/  9/ 10 1018.3R
COVE POINT       1048   42     360/  8/  9 1019.0R
LEWISETTA        1048   42 43  330/  5/  6 1018.3R
SOLOMONS ISLAND  1048   42 41  280/  3/  4   N/A
PINEY POINT      1048          340/  6/  6   N/A

$$





USA.gov is the U.S. government's official web portal to all federal, state and local government web resources and services.